Location: Saalfelden+am+Steinernen+Meer
(47.4274°N, 12.8411°E)
Time: 14:26:03
(UTC+02:00)

OTV 5 (USA 277) - Visible Passes

Search period start: 21 September 2017 00:00
Search period end: 01 October 2017 00:00
Orbit: 404 x 417 km, 43.0° (Epoch: 07 September)

Date Brightness Start Highest point End Pass type
(mag) Time Alt. Az. Time Alt. Az. Time Alt. Az.
21 Sep ? 04:32:54 11° SE 04:32:54 11° SE 04:33:17 10° SE visible
21 Sep ? 06:05:41 10° SW 06:08:37 30° SSE 06:11:33 10° ESE visible
22 Sep ? 05:17:03 24° S 05:17:40 25° SSE 05:20:27 10° ESE visible
23 Sep ? 04:28:24 15° ESE 04:28:24 15° ESE 04:29:17 10° ESE visible
23 Sep ? 06:01:10 14° WSW 06:03:36 37° S 06:06:41 10° ESE visible
24 Sep ? 05:12:31 34° S 05:12:37 34° S 05:15:39 10° ESE visible
25 Sep ? 04:23:52 15° ESE 04:23:52 15° ESE 04:24:36 10° ESE visible
25 Sep ? 05:56:38 18° WSW 05:58:36 36° S 06:01:40 10° ESE visible
26 Sep ? 05:08:01 36° SSE 05:08:01 36° SSE 05:10:43 10° ESE visible
27 Sep ? 04:19:27 12° ESE 04:19:27 12° ESE 04:19:43 10° ESE visible
27 Sep ? 05:52:12 21° SW 05:53:35 28° SSW 05:56:27 10° SE visible
28 Sep ? 05:03:42 26° SSE 05:03:42 26° SSE 05:05:37 10° SE visible
29 Sep ? 05:48:03 18° SSW 05:48:29 19° SSW 05:50:52 10° SSE visible
30 Sep ? 04:59:43 13° SSE 04:59:43 13° SSE 05:00:16 10° SE visible
